This demonstration page uses our WeatherBlox Daily Observations layout. Learn more.

Left ArrowRight Arrow

34.74481, -87.66753

Hourly Observations for April 22, 2017

Temp ( °F °C ) Dew Point ( °F °C ) Humidity (%) Winds ( mph kmh ) Pressure ( in mb ) Visibility ( mi km ) Precip ( " mm )
12:53 am 00:53 Mostly Cloudy 68 20 66 18.9 93 93 E 3 6 29.84 1011 8 13 0.00 0.00
1:42 am 01:42 Cloudy 68 20 65 18.3 90 90 ESE 3 6 29.83 1010 7 11 0.00 0.00
1:53 am 01:53 Mostly Cloudy 68 20 66 18.9 93 93 SSE 5 7 29.83 1010 7 11 0.00 0.00
2:53 am 02:53 Clear 67 19.4 64 17.8 91 91 SSE 7 11 29.80 1009 10 16 0.00 0.00
3:53 am 03:53 Clear 66 18.9 62 16.7 87 87 SSW 5 7 29.80 1009 10 16 0.00 0.00
4:53 am 04:53 Clear 67 19.4 62 16.7 84 84 SW 9 15 29.80 1009 10 16 0.00 0.00
5:53 am 05:53 Mostly Cloudy 67 19.4 61 16.1 81 81 SSW 9 15 29.82 1010 10 16 0.00 0.00
6:25 am 06:25 Cloudy with Thunderstorms 65 18.3 59 15 81 81 NW 20 31 29.88 1012 10 16 0.00 0.00
6:32 am 06:32 Cloudy with Strong Thunderstorms 62 16.7 58 14.4 86 86 NW 12 19 29.88 1012 3 4 0.00 0.00
6:39 am 06:39 Cloudy with Strong Thunderstorms 61 16.1 58 14.4 90 90 NNW 9 15 29.88 1012 2 3 0.00 0.00
6:51 am 06:51 Cloudy with Thunderstorms 61 16 57 14 88 88 N 10 17 29.88 1012 4 6 0.00 0.00
6:53 am 06:53 Cloudy with Thunderstorms 61 16.1 58 14.4 90 90 N 9 15 29.89 1012 6 10 0.00 0.00
7:04 am 07:04 Cloudy with Nearby Thunderstorms 61 16.1 58 14.4 90 90 VRB 5 7 29.88 1012 9 14 0.00 0.00
7:22 am 07:22 Cloudy with Light Rain 61 16.1 58 14.4 90 90 E 7 11 29.88 1012 7 11 0.00 0.00
7:44 am 07:44 Cloudy with Nearby Thunderstorms 61 16.1 58 14.4 90 90 ESE 7 11 29.88 1012 10 16 0.00 0.00
7:53 am 07:53 Cloudy with Light Rain 61 16.1 58 14.4 90 90 VRB 3 6 29.89 1012 10 16 0.00 0.00
8:13 am 08:13 Cloudy with Light Rain 61 16.1 58 14.4 90 90 W 6 9 29.91 1013 6 10 0.00 0.00
8:53 am 08:53 Mostly Cloudy 63 17.2 60 15.6 90 90 ESE 8 13 29.88 1012 10 16 0.00 0.00
9:36 am 09:36 Mostly Cloudy 65 18.3 61 16.1 87 87 SSE 3 6 29.88 1012 10 16 0.00 0.00
9:53 am 09:53 Partly Cloudy 67 19.4 62 16.7 84 84 SSE 8 13 29.88 1012 10 16 0.00 0.00
10:53 am 10:53 Sunny 71 21.7 63 17.2 76 76 S 8 13 29.87 1012 10 16 0.00 0.00
11:53 am 11:53 Partly Cloudy 74 23.3 63 17.2 69 69 S 10 17 29.86 1011 10 16 0.00 0.00
12:21 pm 12:21 Mostly Cloudy 74 23.3 63 17.2 69 69 S 9 15 29.85 1011 10 16 0.00 0.00
12:53 pm 12:53 Mostly Cloudy 74 23.3 64 17.8 71 71 SSW 12 19 29.85 1011 10 16 0.00 0.00
1:05 pm 13:05 Mostly Cloudy 75 23.9 64 17.8 69 69 S 10 17 29.83 1010 10 16 0.00 0.00
1:53 pm 13:53 Cloudy 76 24.4 64 17.8 67 67 SSW 12 19 29.82 1010 10 16 0.00 0.00
2:53 pm 14:53 Mostly Cloudy 77 25 64 17.8 64 64 S 9 15 29.77 1008 10 16 0.00 0.00
3:38 pm 15:38 Partly Cloudy with Nearby Thunderstorms 75 23.9 64 17.8 69 69 SSW 10 17 29.77 1008 10 16 0.00 0.00
3:53 pm 15:53 Mostly Cloudy with Thunderstorms 74 23.3 65 18.3 74 74 SW 7 11 29.75 1008 10 16 0.00 0.00
4:24 pm 16:24 Cloudy with Nearby Thunderstorms 72 22.2 66 18.9 82 82 W 20 31 29.80 1009 8 13 0.00 0.00
4:44 pm 16:44 Cloudy 70 21.1 64 17.8 82 82 NW 12 19 29.83 1010 10 16 0.00 0.00
4:49 pm 16:49 Mostly Cloudy 70 21 64 18 83 83 NW 10 17 29.83 1010 10 16 0.00 0.00
4:53 pm 16:53 Mostly Cloudy 69 20.6 63 17.2 81 81 WNW 9 15 29.80 1009 10 16 0.00 0.00
5:09 pm 17:09 Cloudy 68 20 62 16.7 81 81 VRB 3 6 29.83 1010 8 13 0.00 0.00
5:25 pm 17:25 Cloudy 67 19.4 62 16.7 84 84 VRB 5 7 29.80 1009 10 16 0.00 0.00
5:38 pm 17:38 Cloudy with Nearby Thunderstorms 66 18.9 62 16.7 87 87 NNW 7 11 29.83 1010 8 13 0.00 0.00
5:53 pm 17:53 Cloudy with Nearby Thunderstorms 65 18.3 61 16.1 87 87 VRB 5 7 29.81 1010 10 16 0.00 0.00
6:08 pm 18:08 Cloudy 65 18.3 61 16.1 87 87 VRB 7 11 29.83 1010 10 16 0.00 0.00
6:18 pm 18:18 Cloudy 64 17.8 60 15.6 87 87 VRB 5 7 29.83 1010 10 16 0.00 0.00
6:27 pm 18:27 Cloudy with Light Rain 64 17.8 60 15.6 87 87 N 7 11 29.83 1010 9 14 0.00 0.00
6:40 pm 18:40 Cloudy with Nearby Thunderstorms 64 17.8 61 16.1 90 90 NE 6 9 29.83 1010 10 16 0.00 0.00
6:42 pm 18:42 Cloudy with Thunderstorms 64 17.8 61 16.1 90 90 VRB 6 9 29.83 1010 10 16 0.00 0.00
6:53 pm 18:53 Cloudy with Thunderstorms 64 17.8 60 15.6 87 87 N 5 7 29.83 1010 4 6 0.00 0.00
6:56 pm 18:56 Cloudy with Strong Thunderstorms 64 17.8 60 15.6 87 87 NE 6 9 29.83 1010 2 2 0.00 0.00
7:12 pm 19:12 Cloudy with Thunderstorms 63 17.2 60 15.6 90 90 ENE 5 7 29.83 1010 2 3 0.00 0.00
7:20 pm 19:20 Cloudy with Light Rain 63 17.2 60 15.6 90 90 ENE 6 9 29.83 1010 5 8 0.00 0.00
7:34 pm 19:34 Cloudy with Heavy Rain 62 16.7 59 15 90 90 ENE 6 9 29.83 1010 2 3 0.00 0.00
7:43 pm 19:43 Cloudy with Rain 62 16.7 60 15.6 93 93 ENE 5 7 29.83 1010 3 5 0.00 0.00
7:53 pm 19:53 Cloudy with Light Rain 62 16.7 59 15 90 90 ENE 5 7 29.83 1010 6 10 0.00 0.00
8:00 pm 20:00 Cloudy with Light Rain 62 16.7 59 15 90 90 ENE 6 9 29.83 1010 5 8 0.00 0.00
8:53 pm 20:53 Cloudy 62 16.7 59 15 90 90 N 5 7 29.85 1011 10 16 0.00 0.00
9:53 pm 21:53 Cloudy 61 16.1 59 15 93 93 NNW 5 7 29.86 1011 10 16 0.00 0.00
10:53 pm 22:53 Cloudy with Mist and Fog 59 15 57 13.9 93 93 N 7 11 29.84 1011 3 5 0.00 0.00
11:26 pm 23:26 Cloudy with Mist and Fog 59 15 56 13.3 90 90 N 7 11 29.83 1010 4 6 0.00 0.00
11:53 pm 23:53 Cloudy with Mist and Fog 59 15 56 13.3 90 90 N 5 7 29.84 1010 4 6 0.00 0.00

Powered by AerisWeather